Voltar ao catálogo

STARLINK-11257

AtivoComunicaçõesVLEO
NORAD 61201·PAYLOAD·🇺🇸 United States

Lançado Sep 20, 2024 de Vandenberg Space Force Base

Loading…

Próximas Passagens (próximas 24 horas)

TLE

AtualizadoSource: CelesTrak SupGP

Época: Sep 15, 2026, 03:00 UTC

1 61201C 24171B   26258.12548611  .00039707  00000+0  32697-3 0  2589
2 61201  53.1566 322.5436 0001197  86.9911 141.4644 15.69697307    13

Acompanhe STARLINK-11257 em tempo real com AllMySat

Download on the App Store